"Pseudo-MPEC" for CML5X4Z

Created 2025 Jan 17 12:31:04 UT using Find_Orb

Click here for an explanation of pseudo-MPECs

 
 Astrometry: 
     CML5X4Z*0C2024 12 25.30003003 55 36.217+06 34 07.21   ~1122 20.32GVNEOCPG96
     CML5X4Z 0C2024 12 25.30521103 55 36.246+06 34 13.40   ~1122       VNEOCPG96
     CML5X4Z 0C2024 12 25.31039803 55 36.257+06 34 18.05   ~1122       VNEOCPG96

Station data:
(G96) Mt. Lemmon Survey  (N32.442729 W110.788720)  US/Arizona.  Observer A.
   Zooniverse.  + 10K CCD.

Orbital elements:  CML5X4Z
   Perihelion 2024 Oct 24.10590 +/- 48.6 TT =  2:32:30 (JD 2460607.60590)
Epoch 2024 Dec 25.0 TT = JDT 2460669.5   Earth MOID: 0.3636   Ma: 0.0228
M  27.81248330 +/- 32               (J2000 ecliptic)             AutoNEOCP
n   0.44935598 +/- 0.398            Peri.  271.28341 +/- 90
a   1.68814220 +/- 0.996            Node   128.45419 +/- 60
e   0.2104090 +/- 0.259             Incl.    6.40403 +/- 10
P   2.193/801.131d         H 20.29  G  0.15   U 12.1  SR
q 1.33294175 +/- 0.576    Q 2.04334264 +/- 51.1
From 3 observations 2024 Dec. 25 (14.9 min); mean residual 0".26
Residuals in arcseconds: 
241225 G96  .05-  .26-    241225 G96  .09+  .51+    241225 G96  .05-  .26-    

Ephemerides (geocentric):
Date (UTC) HH   RA             Dec           delta  r     elong  mag " sig PA
---- --------  ------------   ------------  ------ ------ -----  --- --------
2025 01 17 13  04 11 16.598   +13 13 43.26  .63283 1.4470 125.6 21.5  27d  89
2025 01 17 14  04 11 19.462   +13 14 23.32  .63315 1.4471 125.6 21.5  27d  89
2025 01 17 15  04 11 22.330   +13 15 03.36  .63347 1.4472 125.6 21.5  27d  89
2025 01 17 16  04 11 25.202   +13 15 43.39  .63378 1.4473 125.6 21.5  27d  89
2025 01 17 17  04 11 28.077   +13 16 23.40  .63410 1.4474 125.5 21.5  27d  89
2025 01 17 18  04 11 30.955   +13 17 03.40  .63442 1.4475 125.5 21.5  27d  89
2025 01 17 19  04 11 33.838   +13 17 43.38  .63474 1.4476 125.5 21.5  27d  89
2025 01 17 20  04 11 36.724   +13 18 23.35  .63506 1.4477 125.4 21.5  27d  89
2025 01 17 21  04 11 39.613   +13 19 03.30  .63538 1.4478 125.4 21.5  27d  89
2025 01 17 22  04 11 42.507   +13 19 43.23  .63570 1.4479 125.4 21.5  27d  89
2025 01 17 23  04 11 45.403   +13 20 23.15  .63602 1.4480 125.4 21.5  27d  89
2025 01 18 00  04 11 48.304   +13 21 03.05  .63633 1.4481 125.3 21.5  27d  89
2025 01 18 01  04 11 51.208   +13 21 42.94  .63665 1.4482 125.3 21.5  27d  89
2025 01 18 02  04 11 54.116   +13 22 22.81  .63697 1.4483 125.3 21.5  27d  89
2025 01 18 03  04 11 57.028   +13 23 02.67  .63729 1.4484 125.3 21.5  27d  89
2025 01 18 04  04 11 59.943   +13 23 42.51  .63761 1.4485 125.2 21.5  27d  89
2025 01 18 05  04 12 02.862   +13 24 22.33  .63793 1.4486 125.2 21.5  27d  89
2025 01 18 06  04 12 05.784   +13 25 02.14  .63825 1.4487 125.2 21.5  27d  89
2025 01 18 07  04 12 08.710   +13 25 41.93  .63857 1.4488 125.1 21.5  27d  89
2025 01 18 08  04 12 11.640   +13 26 21.71  .63890 1.4489 125.1 21.5  27d  89
2025 01 18 09  04 12 14.573   +13 27 01.47  .63922 1.4490 125.1 21.5  27d  89
2025 01 18 10  04 12 17.510   +13 27 41.21  .63954 1.4491 125.1 21.5  27d  89
2025 01 18 11  04 12 20.450   +13 28 20.94  .63986 1.4492 125.0 21.5  27d  89
2025 01 18 12  04 12 23.394   +13 29 00.65  .64018 1.4493 125.0 21.5  27d  89
2025 01 18 13  04 12 26.342   +13 29 40.35  .64050 1.4494 125.0 21.5  27d  89
2025 01 18 14  04 12 29.293   +13 30 20.03  .64082 1.4495 124.9 21.5  27d  89
2025 01 18 15  04 12 32.248   +13 30 59.69  .64114 1.4496 124.9 21.5  27d  89
2025 01 18 16  04 12 35.207   +13 31 39.34  .64147 1.4497 124.9 21.5  27d  89
2025 01 18 17  04 12 38.169   +13 32 18.97  .64179 1.4498 124.9 21.5  27d  89
2025 01 18 18  04 12 41.135   +13 32 58.59  .64211 1.4499 124.8 21.5  27d  89
2025 01 18 19  04 12 44.104   +13 33 38.19  .64243 1.4500 124.8 21.5  27d  89
2025 01 18 20  04 12 47.077   +13 34 17.77  .64275 1.4501 124.8 21.5  27d  88
2025 01 18 21  04 12 50.054   +13 34 57.34  .64308 1.4502 124.8 21.6  27d  88
2025 01 18 22  04 12 53.034   +13 35 36.89  .64340 1.4503 124.7 21.6  27d  88
2025 01 18 23  04 12 56.017   +13 36 16.43  .64372 1.4504 124.7 21.6  27d  88
2025 01 19 00  04 12 59.005   +13 36 55.95  .64405 1.4505 124.7 21.6  27d  88
2025 01 19 01  04 13 01.995   +13 37 35.45  .64437 1.4506 124.6 21.6  27d  88
2025 01 19 02  04 13 04.990   +13 38 14.94  .64469 1.4507 124.6 21.6  27d  88
2025 01 19 03  04 13 07.988   +13 38 54.41  .64502 1.4508 124.6 21.6  27d  88
2025 01 19 04  04 13 10.989   +13 39 33.87  .64534 1.4509 124.6 21.6  27d  88
2025 01 19 05  04 13 13.995   +13 40 13.30  .64566 1.4510 124.5 21.6  27d  88
2025 01 19 06  04 13 17.003   +13 40 52.73  .64599 1.4511 124.5 21.6  27d  88
2025 01 19 07  04 13 20.016   +13 41 32.13  .64631 1.4512 124.5 21.6  27d  88
2025 01 19 08  04 13 23.031   +13 42 11.52  .64663 1.4513 124.5 21.6  27d  88
2025 01 19 09  04 13 26.051   +13 42 50.90  .64696 1.4514 124.4 21.6  27d  88
2025 01 19 10  04 13 29.074   +13 43 30.25  .64728 1.4515 124.4 21.6  27d  88
2025 01 19 11  04 13 32.100   +13 44 09.60  .64761 1.4516 124.4 21.6  27d  88
2025 01 19 12  04 13 35.130   +13 44 48.92  .64793 1.4517 124.3 21.6  27d  88